CW4635 Weather Reports


time (UTC)temp
C
wind
direction
speed
KPH
gust
KPH
rain 1hr
cm
rain 24hr
cm
rain mn
cm
humidity
%
barometer
mb
20220124110018 3 313 0.0 4.8 0.00 0.00 0.00 96 1025.7
20220124104518 3 271 0.0 4.8 0.00 0.00 0.00 96 1025.7
20220124103016 3 263 0.0 6.4 0.00 0.00 0.00 96 1025.6
20220124101535 3 236 3.2 6.4 0.00 0.00 0.00 96 1025.5
20220124100035 3 275 1.6 6.4 0.00 0.00 0.00 96 1025.8
20220124094551 3 349 1.6 4.8 0.00 0.00 0.00 96 1026.0
20220124093047 3 312 0.0 6.4 0.00 0.00 0.00 96 1025.8
20220124091514 3 348 1.6 9.7 0.00 0.00 0.00 96 1026.2
20220124090010 3 348 0.0 8.0 0.00 0.00 0.00 96 1026.2
20220124084507 3 5 3.2 9.7 0.00 0.00 0.00 96 1026.3
20220124083015 3 347 1.6 8.0 0.00 0.00 0.00 96 1026.2
20220124081511 3 5 4.8 9.7 0.00 0.00 0.00 96 1026.3
20220124080141 3 344 3.2 9.7 0.00 0.00 0.00 96 1026.3
20220124074622 3 346 3.2 9.7 0.00 0.00 0.00 96 1026.2
20220124073141 3 234 1.6 8.0 0.00 0.00 0.00 96 1026.1
20220124071649 3 278 3.2 9.7 0.00 0.00 0.00 96 1026.3
20220124070139 3 302 3.2 8.0 0.00 0.00 0.00 96 1026.3
20220124064628 3 284 1.6 6.4 0.00 0.00 0.00 96 1026.3
20220124063214 3 292 1.6 4.8 0.00 0.00 0.00 96 1026.2
20220124061734 3 247 0.0 6.4 0.00 0.00 0.00 96 1026.0
20220124060130 3 232 1.6 6.4 0.00 0.00 0.00 96 1026.1
20220124054644 3 257 3.2 6.4 0.00 0.00 0.00 96 1026.7
20220124053137 3 265 3.2 6.4 0.00 0.00 0.00 96 1026.8
20220124051636 3 234 3.2 8.0 0.00 0.00 0.00 96 1026.8
20220124050114 3 242 3.2 6.4 0.00 0.00 0.00 96 1026.8
20220124044724 3 296 1.6 8.0 0.00 0.00 0.00 96 1027.1
20220124043123 3 298 1.6 6.4 0.00 0.00 0.00 96 1027.2
20220124041644 3 293 1.6 4.8 0.00 0.00 0.00 96 1027.1
20220124040209 3 321 1.6 11.3 0.00 0.00 0.00 96 1027.3
20220124034714 3 355 4.8 14.5 0.00 0.00 0.00 96 1027.3
20220124033207 3 337 6.4 11.3 0.00 0.00 0.00 96 1027.3
20220124031819 3 355 1.6 6.4 0.00 0.00 0.00 96 1027.3
20220124030138 3 331 4.8 16.1 0.00 0.00 0.00 96 1027.2
20220124024722 3 355 3.2 14.5 0.00 0.00 0.00 96 1027.2
20220124023213 3 360 3.2 11.3 0.00 0.00 0.00 96 1027.2
20220124021552 3 26 3.2 9.7 0.00 0.00 0.00 96 1027.1
20220124020120 3 328 0.0 6.4 0.00 0.00 0.00 96 1027.3
20220124014650 3 36 0.0 4.8 0.00 0.00 0.00 96 1027.3
20220124013100 3 5 0.0 4.8 0.00 0.00 0.00 96 1027.3
20220124011614 3 355 0.0 3.2 0.00 0.00 0.00 96 1027.3
20220124010116 3 355 0.0 4.8 0.00 0.00 0.00 96 1027.3
20220124004631 3 21 1.6 9.7 0.00 0.00 0.00 96 1027.4
20220124003113 3 31 3.2 8.0 0.00 0.00 0.00 96 1027.6
20220124001653 3 25 3.2 9.7 0.00 0.00 0.00 96 1027.5
20220124000133 3 355 3.2 8.0 0.00 0.00 0.00 96 1027.7
20220123234615 3 308 4.8 12.9 0.00 0.00 0.00 96 1027.8
20220123233116 3 360 4.8 14.5 0.00 0.00 0.00 97 1027.8
20220123231613 3 17 8.0 14.5 0.00 0.00 0.00 96 1027.8
20220123230048 3 344 8.0 16.1 0.00 0.00 0.00 97 1027.8
20220123224645 3 343 8.0 17.7 0.00 0.00 0.00 97 1027.8
20220123223100 3 360 6.4 12.9 0.00 0.00 0.00 97 1027.7
20220123221602 3 19 3.2 11.3 0.00 0.00 0.00 97 1027.6
20220123220038 3 355 6.4 16.1 0.00 0.00 0.00 97 1027.7
20220123214554 3 355 4.8 11.3 0.00 0.00 0.00 97 1027.8
20220123213034 3 350 4.8 9.7 0.00 0.00 0.00 97 1027.8
20220123211629 3 323 3.2 4.8 0.00 0.00 0.00 97 1027.8
20220123210035 3 360 0.0 3.2 0.00 0.00 0.00 97 1027.8
20220123204536 3 360 1.6 4.8 0.00 0.00 0.00 97 1028.3
20220123203116 3 338 0.0 4.8 0.00 0.00 0.00 97 1028.4
20220123201528 2 355 4.8 8.0 0.00 0.00 0.00 97 1028.6
20220123200109 3 344 1.6 8.0 0.00 0.00 0.00 97 1028.9
20220123194549 2 351 4.8 9.7 0.00 0.00 0.00 97 1029.3
20220123193105 2 18 3.2 9.7 0.00 0.00 0.00 97 1029.5
20220123191605 2 360 4.8 11.3 0.00 0.00 0.00 97 1029.8
20220123190027 2 15 4.8 9.7 0.00 0.00 0.00 97 1029.9
20220123184526 2 336 6.4 11.3 0.00 0.00 0.00 97 1029.8
20220123183105 2 348 6.4 11.3 0.00 0.00 0.00 97 1030.0
20220123181526 2 355 4.8 11.3 0.00 0.00 0.00 97 1029.9
20220123180022 2 310 8.0 12.9 0.00 0.00 0.00 97 1029.9
20220123174531 2 26 4.8 11.3 0.00 0.00 0.00 97 1029.9
20220123173111 2 299 3.2 9.7 0.00 0.00 0.00 97 1030.0
20220123171533 2 324 3.2 8.0 0.00 0.00 0.00 97 1029.9
20220123170032 2 317 1.6 11.3 0.00 0.00 0.00 97 1030.0
20220123164522 2 309 4.8 9.7 0.00 0.00 0.00 97 1030.2
20220123163040 2 326 3.2 9.7 0.00 0.00 0.00 97 1030.2
20220123161518 2 335 3.2 11.3 0.00 0.00 0.00 97 1030.2
20220123160024 2 330 1.6 9.7 0.00 0.00 0.00 97 1030.2
20220123154543 2 5 4.8 12.9 0.00 0.00 0.00 97 1030.2
20220123153106 2 306 3.2 11.3 0.00 0.00 0.00 97 1030.0
20220123151519 1 330 4.8 9.7 0.00 0.00 0.00 97 1030.3
20220123150029 1 350 4.8 12.9 0.00 0.00 0.00 97 1030.0
20220123144510 1 299 3.2 9.7 0.00 0.00 0.00 97 1029.9
20220123143009 1 283 4.8 11.3 0.00 0.00 0.00 97 1029.9
20220123141529 1 355 3.2 6.4 0.00 0.00 0.00 97 1029.9
20220123140019 1 301 4.8 12.9 0.00 0.00 0.00 97 1029.9
20220123134504 1 360 3.2 9.7 0.00 0.00 0.00 96 1029.9
20220123133003 2 350 4.8 9.7 0.00 0.00 0.00 97 1029.9
20220123131511 2 355 3.2 11.3 0.00 0.00 0.00 96 1029.8
20220123130343 2 319 3.2 8.0 0.00 0.00 0.00 97 1029.8
20220123124733 2 346 4.8 11.3 0.00 0.00 0.00 97 1030.1
20220123123110 2 350 3.2 12.9 0.00 0.00 0.00 97 1030.2
20220123121701 2 319 1.6 9.7 0.00 0.00 0.00 96 1030.1
20220123120217 2 344 3.2 9.7 0.00 0.00 0.00 97 1030.3
20220123114603 2 329 3.2 9.7 0.00 0.00 0.00 96 1030.4
20220123113139 2 344 4.8 11.3 0.00 0.00 0.00 96 1030.4
20220123111555 2 342 4.8 12.9 0.00 0.00 0.00 96 1030.4